User: anonymous   Login
Location: Home
(42.5358°N, 72.7383°W)
Time: 15:17:56
(UTC-05:00)
Language:

XW-2F - Orbit

View from above orbital plane
View from above orbital plane
View from above satellite
View from above satellite

Ground track
Ground track

The orbit data is extracted from the following two-line orbital elements,

1 40910U 15049M   22019.56958429  .00005844  00000-0  27147-3 0  9990
2 40910  97.4743  27.6465 0015065 130.9707 325.3647 15.20288120350540
Epoch (UTC): 19 January 2022 13:40:12
Eccentricity: 0.0015065
inclination: 97.4743°
perigee height: 494 km
apogee height: 515 km
right ascension of ascending node: 27.6465°
argument of perigee: 130.9707°
revolutions per day: 15.20288120
mean anomaly at epoch: 325.3647°
orbit number at epoch: 35054

The dashed part of the orbit path shows where the satellite is in the earth's shadow,  

DLR